Skip Page Navigation
NASA JPL Caltech
NASA Logo - Jet Propulsion Laboratory + View the NASA Portal
+ Center for Near-Earth Object Studies
JPL Home Earth Solar System Stars & Galaxies Technology
JPL Solar System Dynamics
BODIES ORBITS EPHEMERIDES TOOLS PHYSICAL DATA DISCOVERY FAQ SITE MAP
IMPORTANT: The SSD Announcement email list is now available. Major changes are coming in the near future, including possible hostname and/or URL changes. To be notified of such changes, subscribe to this email list.

Please visit this page for more details.


JPL Small-Body Database Browser
Search: [ help ]  
80548 (2000 AW85)
Classification: Main-belt Asteroid          SPK-ID: 2080548
Ephemeris | Orbit Diagram | Orbital Elements | Mission Design | Physical Parameters | Discovery Circumstances | Close-Approach Data ]

[ show orbit diagram ]
Orbital Elements at Epoch 2458600.5 (2019-Apr-27.0) TDB
Reference: JPL 17 (heliocentric ecliptic J2000)
 Element Value Uncertainty (1-sigma)   Units 
e .1765118806080983 5.2781e-08  
a 2.352170570135097 1.0089e-08 au
q 1.936984519289528 1.2259e-07 au
i 1.918669410503256 5.1424e-06 deg
node 179.0334526323196 0.00012613 deg
peri 236.1445082880943 0.00012706 deg
M 169.653359592267 1.421e-05 deg
tp 2457979.542884248986
(2017-Aug-14.04288425)
5.0645e-05 TDB
period 1317.654788609057
3.61
8.4775e-06
2.321e-08
d
yr
n .273212682951673 1.7578e-09 deg/d
Q 2.767356620980665 1.187e-08 au
  Orbit Determination Parameters
   # obs. used (total)      757  
   data-arc span      8073 days (22.10 yr)  
   first obs. used      1997-04-03  
   last obs. used      2019-05-11  
   planetary ephem.      DE431  
   SB-pert. ephem.      SB431-N16  
   condition code      0  
   norm. resid. RMS      .54047  
   source      ORB  
   producer      Otto Matic  
   solution date      2019-May-30 05:49:49  

Additional Information
 Earth MOID = .948889 au 
 Jupiter MOID = 2.57917 au 
 T_jup = 3.535 
[ show covariance matrix ]

Ephemeris | Orbit Diagram | Orbital Elements | Mission Design | Physical Parameters | Discovery Circumstances | Close-Approach Data ]

Physical Parameter Table
Parameter Symbol Value Units Sigma Reference Notes
absolute magnitude H 16.0   n/a MPO280285  

80548 (2000 AW85)          Discovered 2000-Jan-05 by LINEAR at Socorro
Reference: 20040504/Numbers.arcLast Updated: 2004-07-16

[ show close-approach data ]
Ephemeris | Orbit Diagram | Orbital Elements | Mission Design | Physical Parameters | Discovery Circumstances | Close-Approach Data ]
ABOUT SSD CREDITS/AWARDS PRIVACY/COPYRIGHT GLOSSARY LINKS
FirstGov 2020-Jan-20 18:16 UT
(server date/time)  
NASA Home Page
Site Manager:   Ryan S. Park
Webmaster  Alan B. Chamberlin